Flag for Canada Weather past 2 weeks in Cornwall, Ontario, Canada

Now
15 °F

Cold.


Feels Like: 8 °F
Forecast: 11 / 24 °F
Wind: 5 mph from Southwest

Location: St Anicet

Current Time: Dec 19, 2014 at 9:03:05 PM

Latest Report: Dec 19, 2014 at 8:00 PM


Visibility: N/A

Pressure: 30.25 "Hg

Humidity: 89%

Dew point: 12 °F

Location of CornwallLocation

Historic Weather in Cornwall — Graph

°F

Cornwall temperature yesterday

Maximum temperature yesterday: 33 °F (at 12:00 AM)
Minimum temperature yesterday: 27 °F (at 11:00 PM)
Average temperature yesterday: 31 °F

Past Weeks' High & Low Weather Summary

 TemperatureHumidityPressure
High36 °F (Dec 17, 4:00 PM)100% (Dec 6, 10:00 AM)30.84 "Hg (Dec 6, 10:00 AM)
Low8 °F (Dec 5, 12:00 AM)48% (Dec 7, 3:00 PM)29.58 "Hg (Dec 11, 5:00 AM)
Average26 °F90%30.12 "Hg
* Reported Dec 4 8:00 PM — Dec 19 8:00 PM, Cornwall, Weather by CustomWeather, © 2014

Note: Actual official high and low records may vary slightly from our data, if they occured in-between our weather recording intervals... More about our weather records

Advertising

Cornwall weather history for previous 24 hours

 ConditionsComfort  
Time TempWeatherWind HumidityBarometerVisibility
8:00 PM
Dec 19
15 °FCold.5 mph89%30.25 "HgN/A
7:00 PM16 °FCold.7 mph85%30.25 "HgN/A
6:00 PM17 °FCold.7 mph82%30.23 "HgN/A
5:00 PM18 °FCold.6 mph84%30.21 "HgN/A
4:00 PM19 °FCold.6 mph79%30.18 "HgN/A
3:00 PM21 °FCold.8 mph78%30.16 "HgN/A
2:00 PM22 °FCold.8 mph80%30.14 "HgN/A
1:00 PM22 °FCold.8 mph82%30.14 "HgN/A
12:00 PM24 °FCold.9 mph75%30.13 "HgN/A
11:00 AM22 °FCold.8 mph80%30.14 "HgN/A
10:00 AM23 °FCold.9 mph79%30.13 "HgN/A
9:00 AM22 °FCold.9 mph81%30.11 "HgN/A
8:00 AM23 °FCold.8 mph82%30.08 "HgN/A
7:00 AM23 °FCold.8 mph82%30.06 "HgN/A
6:00 AM23 °FCold.7 mph85%30.04 "HgN/A
5:00 AM24 °FCold.8 mph85%30.02 "HgN/A
4:00 AM24 °FCold.9 mph91%30.01 "HgN/A
3:00 AM25 °FChilly.9 mph84%30.01 "HgN/A
2:00 AM26 °FChilly.9 mph86%30.00 "HgN/A
1:00 AM26 °FChilly.8 mph86%29.98 "HgN/A
12:00 AM27 °FChilly.9 mph86%29.99 "HgN/A
11:00 PM
Dec 18
27 °FChilly.8 mph86%29.98 "HgN/A
10:00 PM27 °FChilly.8 mph86%29.98 "HgN/A
9:00 PM28 °FChilly.8 mph86%29.98 "HgN/A
Weather by CustomWeather, © 2014

See weather overviewHow to use our weather pages